Volver al catálogo

PARUS-T1

ActivoRadioaficionadoSSO
NORAD 62656·PAYLOAD·🇯🇵 Japan

Lanzado Jan 14, 2025 desde Vandenberg Space Force Base

Loading…

Próximos Pases (próximas 24 horas)

TLE

ActualizadoSource: Space-Track

Época: Sep 13, 2026, 17:20 UTC

1 62656U 25009AZ  26256.72252188  .00009944  00000-0  29543-3 0  9999
2 62656  97.3895 339.9026 0002046  57.0670 303.0770 15.34969899 92595

Sigue PARUS-T1 en tiempo real con AllMySat

Download on the App Store